Location: Barcelona
(41.3829°N, 2.1774°E)
Time: 14:45:35
(UTC+00:00)

ISS - Pass Details

Date: 13 July 2024
Orbit: 410 x 424 km, 51.6° (Epoch: 14 July)

Event Time Altitude Azimuth Distance (km) Brightness Sun altitude
Rises 21:47:43 0° 289° (WNW) 2,339 0.8 -20.2°
Reaches altitude 10° 21:50:27 10° 313° (NW) 1,478 0.1 -20.5°
Maximum altitude 21:52:30 15° 351° (N) 1,203 -0.6 -20.7°
Drops below altitude 10° 21:54:33 10° 30° (NNE) 1,481 -0.6 -20.9°
Sets 21:57:18 0° 54° (NE) 2,346 0.1 -21.1°
